Breckenridge, TX

9:43 PM CDT on April 22, 2018 (GMT -0500)
Stephens County

Weather History for KBKD - November, 2012

Change the Weather History Date:

Thursday, November 22, 2012

  Actual Average (KMWL) Record (KMWL)
Temperature  
Mean Temperature 70 °F -  
Max Temperature 78 °F 63 °F 84 °F (2010)
Min Temperature 62 °F 41 °F 26 °F (2015)
Cooling Degree Days 5    
Growing Degree Days 20 (Base 50)    
Moisture  
Dew Point 52 °F    
Average Humidity 58    
Maximum Humidity 73    
Minimum Humidity 39    
Precipitation  
Precipitation 0.00 in - - ()
Sea Level Pressure  
Sea Level Pressure 30.05 in    
Wind  
Wind Speed 12 mph (South)    
Max Wind Speed 21 mph    
Max Gust Speed 28 mph    
Visibility 10 miles    
Events Rain    
Averages and records for this station are not official NWS values.
T = Trace of Precipitation, MM = Missing Value Source: NWS Daily Summary

Daily Weather History Graph

Daily Weather History Graph

Search for Another Location

Airport or City:

Astronomy

Nov. 22, 2012 Rise Set
Actual Time 7:12 AM CST 5:31 PM CST
Civil Twilight 6:45 AM CST 5:57 PM CST
Nautical Twilight 6:15 AM CST 6:27 PM CST
Astronomical Twilight 5:46 AM CST 6:57 PM CST
Moon 2:02 PM CST (11/22) 1:50 AM CST (11/22)
Length of Visible Light 11h 11m
Length of Day
10h 18m
Waxing Gibbous, 71% of the Moon is Illuminated
Nov 22
Waxing Gibbous
Nov 28
Full
Dec 6
Last Quarter
Dec 13
New
Dec 19
First Quarter

Hourly Weather History & Observations

Time (CST) Temp. Dew Point Humidity Pressure Visibility Wind Dir Wind Speed Gust Speed Precip Events Conditions
12:15 AM 64.4 °F 48.2 °F 56% 30.08 in 10.0 mi South 12.7 mph - N/A   Clear
12:35 AM 64.4 °F 50.0 °F 59% 30.08 in 10.0 mi South 15.0 mph - N/A   Clear
12:55 AM 64.4 °F 50.0 °F 59% 30.08 in 10.0 mi SSW 12.7 mph - N/A   Clear
1:15 AM 64.4 °F 50.0 °F 59% 30.08 in 10.0 mi SSW 11.5 mph - N/A   Clear
1:35 AM 64.4 °F 50.0 °F 59% 30.08 in 10.0 mi SSW 11.5 mph 18.4 mph N/A   Clear
1:55 AM 64.4 °F 48.2 °F 56% 30.08 in 10.0 mi SSW 10.4 mph - N/A   Clear
2:15 AM 62.6 °F 50.0 °F 63% 30.08 in 10.0 mi SSW 10.4 mph - N/A   Clear
2:35 AM 64.4 °F 50.0 °F 59% 30.08 in 10.0 mi SSW 12.7 mph 16.1 mph N/A   Clear
2:55 AM 64.4 °F 50.0 °F 59% 30.08 in 10.0 mi SSW 12.7 mph - N/A   Clear
3:15 AM 64.4 °F 50.0 °F 59% 30.08 in 10.0 mi SSW 12.7 mph 17.3 mph N/A   Clear
3:35 AM 62.6 °F 50.0 °F 63% 30.07 in 10.0 mi SSW 12.7 mph - N/A   Clear
3:55 AM 62.6 °F 48.2 °F 59% 30.06 in 10.0 mi South 12.7 mph 17.3 mph N/A   Clear
4:15 AM 62.6 °F 50.0 °F 63% 30.06 in 10.0 mi South 12.7 mph 19.6 mph N/A   Clear
4:35 AM 62.6 °F 50.0 °F 63% 30.05 in 10.0 mi South 11.5 mph - N/A   Clear
4:55 AM 62.6 °F 50.0 °F 63% 30.05 in 10.0 mi South 9.2 mph - N/A   Clear
5:15 AM 62.6 °F 50.0 °F 63% 30.05 in 10.0 mi South 11.5 mph - N/A   Clear
5:35 AM 62.6 °F 50.0 °F 63% 30.04 in 10.0 mi South 12.7 mph - N/A   Clear
5:55 AM 62.6 °F 50.0 °F 63% 30.04 in 10.0 mi South 10.4 mph - N/A   Clear
6:15 AM 62.6 °F 50.0 °F 63% 30.05 in 10.0 mi South 10.4 mph - N/A   Clear
6:35 AM 62.6 °F 50.0 °F 63% 30.05 in 10.0 mi South 15.0 mph 18.4 mph N/A   Clear
6:55 AM 62.6 °F 50.0 °F 63% 30.05 in 10.0 mi South 15.0 mph 21.9 mph N/A   Clear
7:15 AM 62.6 °F 51.8 °F 68% 30.05 in 10.0 mi South 13.8 mph 21.9 mph N/A   Scattered Clouds
7:35 AM 62.6 °F 51.8 °F 68% 30.05 in 10.0 mi South 18.4 mph 25.3 mph N/A   Mostly Cloudy
7:55 AM 62.6 °F 51.8 °F 68% 30.05 in 10.0 mi South 11.5 mph 20.7 mph N/A   Mostly Cloudy
8:15 AM 62.6 °F 53.6 °F 72% 30.06 in 10.0 mi SSW 15.0 mph 24.2 mph N/A Rain Light Rain
8:35 AM 62.6 °F 51.8 °F 68% 30.07 in 10.0 mi South 17.3 mph 24.2 mph N/A   Mostly Cloudy
8:55 AM 64.4 °F 51.8 °F 64% 30.08 in 10.0 mi SSW 15.0 mph 23.0 mph N/A   Overcast
9:15 AM 64.4 °F 53.6 °F 68% 30.08 in 10.0 mi SSW 11.5 mph 18.4 mph N/A   Mostly Cloudy
9:35 AM 64.4 °F 53.6 °F 68% 30.08 in 10.0 mi SW 12.7 mph 18.4 mph N/A   Scattered Clouds
9:55 AM 64.4 °F 53.6 °F 68% 30.08 in 10.0 mi SSW 11.5 mph 17.3 mph N/A   Mostly Cloudy
10:15 AM 64.4 °F 53.6 °F 68% 30.08 in 10.0 mi South 9.2 mph - N/A   Light Drizzle
10:35 AM 64.4 °F 55.4 °F 73% 30.09 in 10.0 mi SSW 10.4 mph 16.1 mph N/A   Mostly Cloudy
10:55 AM 69.8 °F 55.4 °F 60% 30.08 in 10.0 mi SSW 12.7 mph - N/A   Scattered Clouds
11:15 AM 73.4 °F 55.4 °F 53% 30.07 in 10.0 mi SSW 15.0 mph - N/A   Clear
11:35 AM 75.2 °F 53.6 °F 47% 30.05 in 10.0 mi SW 16.1 mph 23.0 mph N/A   Clear
11:55 AM 77.0 °F 53.6 °F 44% 30.04 in 10.0 mi SSW 16.1 mph - N/A   Scattered Clouds
12:15 PM 77.0 °F 53.6 °F 44% 30.04 in 10.0 mi SW 18.4 mph 24.2 mph N/A   Scattered Clouds
12:55 PM 77.0 °F 53.6 °F 44% 30.01 in 10.0 mi SSW 13.8 mph 20.7 mph N/A   Clear
1:35 PM 75.2 °F 53.6 °F 47% 29.99 in 10.0 mi SSW 17.3 mph 27.6 mph N/A   Clear
2:15 PM 75.2 °F 53.6 °F 47% 29.99 in 10.0 mi SSW 15.0 mph - N/A   Clear
2:35 PM 77.0 °F 53.6 °F 44% 29.99 in 10.0 mi SSW 20.7 mph 25.3 mph N/A   Clear
2:55 PM 77.0 °F 53.6 °F 44% 29.99 in 10.0 mi SW 16.1 mph 25.3 mph N/A   Clear
3:15 PM 78.8 °F 53.6 °F 42% 29.98 in 10.0 mi SW 15.0 mph 21.9 mph N/A   Clear
3:35 PM 77.0 °F 53.6 °F 44% 29.98 in 10.0 mi SSW 12.7 mph 18.4 mph N/A   Clear
3:55 PM 78.8 °F 51.8 °F 39% 29.98 in 10.0 mi SW 16.1 mph 24.2 mph N/A   Clear
4:15 PM 78.8 °F 51.8 °F 39% 29.98 in 10.0 mi SSW 16.1 mph 20.7 mph N/A   Clear
5:15 PM 75.2 °F 51.8 °F 44% 29.98 in 10.0 mi South 10.4 mph - N/A   Clear
5:35 PM 73.4 °F 51.8 °F 47% 29.98 in 10.0 mi South 8.1 mph - N/A   Clear
5:55 PM 73.4 °F 51.8 °F 47% 29.99 in 10.0 mi SSE 6.9 mph - N/A   Clear
6:15 PM 71.6 °F 53.6 °F 53% 29.99 in 10.0 mi SSE 5.8 mph - N/A   Clear
6:35 PM 69.8 °F 53.6 °F 56% 30.01 in 10.0 mi SSE 6.9 mph - N/A   Clear
6:55 PM 69.8 °F 53.6 °F 56% 30.02 in 10.0 mi SSE 6.9 mph - N/A   Clear
7:15 PM 68.0 °F 53.6 °F 60% 30.03 in 10.0 mi SSE 8.1 mph - N/A   Clear
7:35 PM 68.0 °F 53.6 °F 60% 30.03 in 10.0 mi SSE 9.2 mph - N/A   Clear
7:55 PM 68.0 °F 53.6 °F 60% 30.03 in 10.0 mi SSE 9.2 mph - N/A   Clear
8:15 PM 68.0 °F 53.6 °F 60% 30.04 in 10.0 mi SSE 11.5 mph - N/A   Clear
8:35 PM 68.0 °F 53.6 °F 60% 30.04 in 10.0 mi SSE 11.5 mph - N/A   Clear
8:55 PM 68.0 °F 53.6 °F 60% 30.04 in 10.0 mi SSE 11.5 mph - N/A   Clear
9:15 PM 68.0 °F 53.6 °F 60% 30.05 in 10.0 mi South 10.4 mph - N/A   Clear
9:35 PM 68.0 °F 53.6 °F 60% 30.05 in 10.0 mi South 12.7 mph - N/A   Clear
9:55 PM 68.0 °F 53.6 °F 60% 30.05 in 10.0 mi South 11.5 mph - N/A   Clear
10:15 PM 68.0 °F 53.6 °F 60% 30.06 in 10.0 mi South 11.5 mph 17.3 mph N/A   Clear
10:35 PM 68.0 °F 53.6 °F 60% 30.06 in 10.0 mi South 10.4 mph - N/A   Clear
10:55 PM 68.0 °F 53.6 °F 60% 30.07 in 10.0 mi South 10.4 mph - N/A   Clear
11:15 PM 66.2 °F 53.6 °F 64% 30.07 in 10.0 mi South 9.2 mph - N/A   Clear
11:35 PM 64.4 °F 53.6 °F 68% 30.08 in 10.0 mi South 6.9 mph - N/A   Clear
11:55 PM 64.4 °F 53.6 °F 68% 30.09 in 10.0 mi South 4.6 mph - N/A   Clear